Location: Vesunti
(61.5000°N, 22.8333°E)
Time: 18:18:30
(UTC+00:00)

Cosmos 2239 Rocket - Pass Details

Date: 17 February 2020
Orbit: 953 x 992 km, 82.9° (Epoch: 31 March)

Event Time Altitude Azimuth Distance (km) Brightness Sun altitude
Rises 02:27:28 0° 346° (NNW) 3,678 7.6 -26.4°
Reaches altitude 10° 02:30:01 10° 343° (NNW) 2,722 6.9 -26.2°
Maximum altitude 02:36:08 63° 264° (W) 1,072 4.4 -25.5°
Enters shadow 02:36:31 61° 245° (WSW) 1,083 4.4 -25.5°
